Time,TemperatureF,DewpointF,PressureIn,WindDirection,WindDirectionDegrees,WindSpeedMPH,WindSpeedGustMPH,Humidity,HourlyPrecipIn,Conditions,Clouds,dailyrainin,SoftwareType,DateUTC
2013-05-18 00:01:00,74.2,71.7,29.98,SW,217,0.0,5.0,92,0.00,,---,0.00,VWS V14.01,2013-05-18 05:01:00,
2013-05-18 00:06:00,74.2,71.7,29.98,SW,217,3.0,5.0,92,0.00,,---,0.00,VWS V14.01,2013-05-18 05:06:00,
2013-05-18 00:11:00,74.2,71.7,29.98,South,181,4.0,11.0,92,0.00,,---,0.00,VWS V14.01,2013-05-18 05:11:00,
2013-05-18 00:16:00,74.2,71.7,29.98,SW,217,6.0,11.0,92,0.00,,---,0.00,VWS V14.01,2013-05-18 05:16:00,
2013-05-18 00:21:00,74.3,71.8,29.98,SSW,204,0.0,11.0,92,0.00,,---,0.00,VWS V14.01,2013-05-18 05:21:00,
2013-05-18 00:26:00,74.3,71.8,29.98,SSW,209,5.0,11.0,92,0.00,,---,0.00,VWS V14.01,2013-05-18 05:26:00,
2013-05-18 00:31:00,74.3,71.8,29.98,South,188,0.0,5.0,92,0.00,,---,0.00,VWS V14.01,2013-05-18 05:31:00,
2013-05-18 00:36:00,74.4,71.9,29.98,SSW,194,0.0,6.0,92,0.00,,---,0.00,VWS V14.01,2013-05-18 05:36:00,
2013-05-18 00:41:00,74.4,71.9,29.98,SW,215,4.0,6.0,92,0.00,,---,0.00,VWS V14.01,2013-05-18 05:41:00,
2013-05-18 00:46:00,74.3,71.8,29.97,SW,215,0.0,6.0,92,0.00,,---,0.00,VWS V14.01,2013-05-18 05:46:00,
2013-05-18 00:51:00,74.3,71.8,29.97,SSE,154,2.0,9.0,92,0.00,,---,0.00,VWS V14.01,2013-05-18 05:51:00,
2013-05-18 00:56:00,74.3,72.2,29.97,SSW,204,3.0,9.0,93,0.00,,---,0.00,VWS V14.01,2013-05-18 05:56:00,
2013-05-18 01:01:00,74.4,72.2,29.97,SSW,203,4.0,5.0,93,0.00,,---,0.00,VWS V14.01,2013-05-18 06:01:00,
2013-05-18 01:06:00,74.4,72.2,29.97,SW,234,0.0,12.0,93,0.00,,---,0.00,VWS V14.01,2013-05-18 06:06:00,
2013-05-18 01:11:00,74.3,72.2,29.97,South,178,0.0,12.0,93,0.00,,---,0.00,VWS V14.01,2013-05-18 06:11:00,
2013-05-18 01:16:00,74.3,72.2,29.97,SSW,205,3.0,12.0,93,0.00,,---,0.00,VWS V14.01,2013-05-18 06:16:00,
2013-05-18 01:21:00,74.3,72.2,29.97,SSW,196,0.0,12.0,93,0.00,,---,0.00,VWS V14.01,2013-05-18 06:21:00,
2013-05-18 01:26:00,74.3,72.2,29.97,SW,223,0.0,12.0,93,0.00,,---,0.00,VWS V14.01,2013-05-18 06:26:00,
2013-05-18 01:31:00,74.4,72.2,29.97,WSW,240,6.0,11.0,93,0.00,,---,0.00,VWS V14.01,2013-05-18 06:31:00,
2013-05-18 01:36:00,74.4,72.2,29.96,WSW,241,0.0,12.0,93,0.00,,---,0.00,VWS V14.01,2013-05-18 06:36:00,
2013-05-18 01:41:00,74.4,72.2,29.95,SSW,206,4.0,12.0,93,0.00,,---,0.00,VWS V14.01,2013-05-18 06:41:00,
2013-05-18 01:46:00,74.4,72.2,29.95,SW,222,0.0,12.0,93,0.00,,---,0.00,VWS V14.01,2013-05-18 06:46:00,
2013-05-18 01:51:00,74.3,72.2,29.95,South,177,3.0,12.0,93,0.00,,---,0.00,VWS V14.01,2013-05-18 06:51:00,
2013-05-18 01:56:00,74.3,72.2,29.95,SW,219,4.0,12.0,93,0.00,,---,0.00,VWS V14.01,2013-05-18 06:56:00,
2013-05-18 02:01:00,74.3,72.2,29.95,SW,217,4.0,9.0,93,0.00,,---,0.00,VWS V14.01,2013-05-18 07:01:00,
2013-05-18 02:06:00,74.3,72.2,29.94,NNE,15,0.0,9.0,93,0.00,,---,0.00,VWS V14.01,2013-05-18 07:06:00,
2013-05-18 02:11:00,74.4,72.2,29.94,SSW,206,2.0,12.0,93,0.00,,---,0.00,VWS V14.01,2013-05-18 07:11:00,
2013-05-18 02:16:00,74.4,72.2,29.95,South,178,3.0,12.0,93,0.00,,---,0.00,VWS V14.01,2013-05-18 07:16:00,
2013-05-18 02:21:00,74.4,72.2,29.94,SW,218,5.0,12.0,93,0.00,,---,0.00,VWS V14.01,2013-05-18 07:21:00,
2013-05-18 02:26:00,74.4,72.2,29.94,SW,217,5.0,14.0,93,0.00,,---,0.00,VWS V14.01,2013-05-18 07:26:00,
2013-05-18 02:31:00,74.4,72.2,29.94,WSW,241,1.0,14.0,93,0.00,,---,0.00,VWS V14.01,2013-05-18 07:31:00,
2013-05-18 02:36:00,74.3,72.2,29.95,South,178,2.0,14.0,93,0.00,,---,0.00,VWS V14.01,2013-05-18 07:36:00,
2013-05-18 02:41:00,74.3,72.2,29.94,SSW,205,8.0,14.0,93,0.00,,---,0.00,VWS V14.01,2013-05-18 07:41:00,
2013-05-18 02:46:00,74.3,72.2,29.94,SW,217,2.0,14.0,93,0.00,,---,0.00,VWS V14.01,2013-05-18 07:46:00,
2013-05-18 02:51:00,74.3,72.2,29.94,SSW,201,7.0,14.0,93,0.00,,---,0.00,VWS V14.01,2013-05-18 07:51:00,
2013-05-18 02:56:00,74.3,72.2,29.94,SW,233,0.0,14.0,93,0.00,,---,0.00,VWS V14.01,2013-05-18 07:56:00,
2013-05-18 03:01:00,74.3,72.2,29.94,South,188,4.0,7.0,93,0.00,,---,0.00,VWS V14.01,2013-05-18 08:01:00,
2013-05-18 03:06:00,74.3,72.2,29.94,SSW,205,5.0,10.0,93,0.00,,---,0.00,VWS V14.01,2013-05-18 08:06:00,
2013-05-18 03:11:00,74.4,72.2,29.94,SSW,196,3.0,10.0,93,0.00,,---,0.00,VWS V14.01,2013-05-18 08:11:00,
2013-05-18 03:16:00,74.4,72.2,29.94,West,265,0.0,10.0,93,0.00,,---,0.00,VWS V14.01,2013-05-18 08:16:00,
2013-05-18 03:21:00,74.4,72.2,29.94,SSW,192,4.0,10.0,93,0.00,,---,0.00,VWS V14.01,2013-05-18 08:21:00,
2013-05-18 03:26:00,74.4,72.2,29.94,SW,222,2.0,10.0,93,0.00,,---,0.00,VWS V14.01,2013-05-18 08:26:00,
2013-05-18 03:31:00,74.4,72.2,29.94,WSW,250,0.0,5.0,93,0.00,,---,0.00,VWS V14.01,2013-05-18 08:31:00,
2013-05-18 03:36:00,74.4,72.2,29.94,SW,226,3.0,5.0,93,0.00,,---,0.00,VWS V14.01,2013-05-18 08:36:00,
2013-05-18 03:41:00,74.4,72.2,29.94,South,183,5.0,9.0,93,0.00,,---,0.00,VWS V14.01,2013-05-18 08:41:00,
2013-05-18 03:46:00,74.4,72.2,29.94,SW,223,0.0,9.0,93,0.00,,---,0.00,VWS V14.01,2013-05-18 08:46:00,
2013-05-18 03:51:00,74.4,72.2,29.94,SSW,205,6.0,9.0,93,0.00,,---,0.00,VWS V14.01,2013-05-18 08:51:00,
2013-05-18 03:56:00,74.5,72.3,29.94,SW,219,5.0,9.0,93,0.00,,---,0.00,VWS V14.01,2013-05-18 08:56:00,
2013-05-18 04:01:00,74.4,72.2,29.94,WSW,246,5.0,9.0,93,0.00,,---,0.00,VWS V14.01,2013-05-18 09:01:00,
2013-05-18 04:06:00,74.5,72.3,29.94,West,280,4.0,9.0,93,0.00,,---,0.00,VWS V14.01,2013-05-18 09:06:00,
2013-05-18 04:11:00,74.5,72.3,29.94,SSW,211,1.0,9.0,93,0.00,,---,0.00,VWS V14.01,2013-05-18 09:11:00,
2013-05-18 04:16:00,74.5,72.3,29.94,SW,214,2.0,10.0,93,0.00,,---,0.00,VWS V14.01,2013-05-18 09:16:00,
2013-05-18 04:21:00,74.5,72.3,29.94,SW,218,0.0,10.0,93,0.00,,---,0.00,VWS V14.01,2013-05-18 09:21:00,
2013-05-18 04:26:00,74.5,72.3,29.94,WSW,248,3.0,10.0,93,0.00,,---,0.00,VWS V14.01,2013-05-18 09:26:00,
2013-05-18 04:31:00,74.5,72.3,29.94,SW,223,3.0,5.0,93,0.00,,---,0.00,VWS V14.01,2013-05-18 09:31:00,
2013-05-18 04:36:00,74.5,72.3,29.94,SW,219,0.0,10.0,93,0.00,,---,0.00,VWS V14.01,2013-05-18 09:36:00,
2013-05-18 04:41:00,74.5,72.3,29.94,SW,216,0.0,10.0,93,0.00,,---,0.00,VWS V14.01,2013-05-18 09:41:00,
2013-05-18 04:46:00,74.5,72.3,29.94,SW,224,2.0,11.0,93,0.00,,---,0.00,VWS V14.01,2013-05-18 09:46:00,
2013-05-18 04:51:00,74.4,72.2,29.94,WSW,250,2.0,11.0,93,0.00,,---,0.00,VWS V14.01,2013-05-18 09:51:00,
2013-05-18 04:56:00,74.4,72.2,29.94,SW,219,7.0,11.0,93,0.00,,---,0.00,VWS V14.01,2013-05-18 09:56:00,
2013-05-18 05:01:00,74.4,72.2,29.94,West,265,4.0,7.0,93,0.00,,---,0.00,VWS V14.01,2013-05-18 10:01:00,
2013-05-18 05:06:00,74.4,72.2,29.94,WSW,251,1.0,7.0,93,0.00,,---,0.00,VWS V14.01,2013-05-18 10:06:00,
2013-05-18 05:11:00,74.4,72.6,29.94,WSW,237,0.0,7.0,94,0.00,,---,0.00,VWS V14.01,2013-05-18 10:11:00,
2013-05-18 05:16:00,74.4,72.6,29.94,SW,234,0.0,7.0,94,0.00,,---,0.00,VWS V14.01,2013-05-18 10:16:00,
2013-05-18 05:21:00,74.4,72.6,29.94,SW,221,0.0,7.0,94,0.00,,---,0.00,VWS V14.01,2013-05-18 10:21:00,
2013-05-18 05:26:00,74.3,72.5,29.94,WSW,253,1.0,7.0,94,0.00,,---,0.00,VWS V14.01,2013-05-18 10:26:00,
2013-05-18 05:31:00,74.3,72.5,29.95,SSW,210,0.0,7.0,94,0.00,,---,0.00,VWS V14.01,2013-05-18 10:31:00,
2013-05-18 05:36:00,74.3,72.5,29.95,SSW,211,0.0,8.0,94,0.00,,---,0.00,VWS V14.01,2013-05-18 10:36:00,
2013-05-18 05:41:00,74.2,72.4,29.95,WSW,240,4.0,8.0,94,0.00,,---,0.00,VWS V14.01,2013-05-18 10:41:00,
2013-05-18 05:46:00,74.2,72.4,29.95,SSW,202,1.0,8.0,94,0.00,,---,0.00,VWS V14.01,2013-05-18 10:46:00,
2013-05-18 05:51:00,74.1,72.3,29.94,SW,219,0.0,8.0,94,0.00,,---,0.00,VWS V14.01,2013-05-18 10:51:00,
2013-05-18 05:56:00,74.1,72.3,29.95,SW,215,1.0,8.0,94,0.00,,---,0.00,VWS V14.01,2013-05-18 10:56:00,
2013-05-18 06:01:00,74.1,72.3,29.95,SSW,213,0.0,3.0,94,0.00,,---,0.00,VWS V14.01,2013-05-18 11:01:00,
2013-05-18 06:06:00,74.1,72.3,29.95,SW,225,0.0,4.0,94,0.00,,---,0.00,VWS V14.01,2013-05-18 11:06:00,
2013-05-18 06:11:00,74.1,72.3,29.95,SW,225,0.0,4.0,94,0.00,,---,0.00,VWS V14.01,2013-05-18 11:11:00,
2013-05-18 06:16:00,74.1,72.3,29.95,South,187,2.0,5.0,94,0.00,,---,0.00,VWS V14.01,2013-05-18 11:16:00,
2013-05-18 06:21:00,74.2,72.4,29.96,SSW,197,0.0,5.0,94,0.00,,---,0.00,VWS V14.01,2013-05-18 11:21:00,
2013-05-18 06:26:00,74.2,72.4,29.96,SW,231,2.0,5.0,94,0.00,,---,0.00,VWS V14.01,2013-05-18 11:26:00,
2013-05-18 06:31:00,74.3,72.5,29.96,SW,215,0.0,4.0,94,0.00,,---,0.00,VWS V14.01,2013-05-18 11:31:00,
2013-05-18 06:36:00,74.3,72.5,29.97,SW,235,3.0,4.0,94,0.00,,---,0.00,VWS V14.01,2013-05-18 11:36:00,
2013-05-18 06:41:00,74.4,72.6,29.97,WSW,254,3.0,7.0,94,0.00,,---,0.00,VWS V14.01,2013-05-18 11:41:00,
2013-05-18 06:46:00,74.5,72.7,29.97,WSW,251,0.0,7.0,94,0.00,,---,0.00,VWS V14.01,2013-05-18 11:46:00,
2013-05-18 06:51:00,74.6,72.8,29.98,SW,234,0.0,7.0,94,0.00,,---,0.00,VWS V14.01,2013-05-18 11:51:00,
2013-05-18 06:56:00,74.7,72.9,29.97,SSW,202,3.0,7.0,94,0.00,,---,0.00,VWS V14.01,2013-05-18 11:56:00,
2013-05-18 07:01:00,74.8,73.0,29.98,SW,227,0.0,5.0,94,0.00,,---,0.00,VWS V14.01,2013-05-18 12:01:00,
2013-05-18 07:06:00,74.8,73.0,29.98,SW,221,0.0,5.0,94,0.00,,---,0.00,VWS V14.01,2013-05-18 12:06:00,
2013-05-18 07:11:00,74.9,73.1,29.98,South,190,3.0,6.0,94,0.00,,---,0.00,VWS V14.01,2013-05-18 12:11:00,
2013-05-18 07:16:00,75.1,73.3,29.98,SW,217,0.0,6.0,94,0.00,,---,0.00,VWS V14.01,2013-05-18 12:16:00,
2013-05-18 07:21:00,75.2,73.4,29.97,South,178,0.0,9.0,94,0.00,,---,0.00,VWS V14.01,2013-05-18 12:21:00,
2013-05-18 07:26:00,75.4,73.6,29.98,SW,230,3.0,9.0,94,0.00,,---,0.00,VWS V14.01,2013-05-18 12:26:00,
2013-05-18 07:31:00,75.6,73.4,29.98,South,173,2.0,6.0,93,0.00,,---,0.00,VWS V14.01,2013-05-18 12:31:00,
2013-05-18 07:36:00,75.7,73.5,29.98,SW,225,3.0,9.0,93,0.00,,---,0.00,VWS V14.01,2013-05-18 12:36:00,
2013-05-18 07:41:00,75.8,73.6,29.98,West,269,3.0,10.0,93,0.00,,---,0.00,VWS V14.01,2013-05-18 12:41:00,
2013-05-18 07:46:00,75.9,73.4,29.98,WSW,244,1.0,10.0,92,0.00,,---,0.00,VWS V14.01,2013-05-18 12:46:00,
2013-05-18 07:51:00,76.0,73.5,29.98,SSW,204,5.0,10.0,92,0.00,,---,0.00,VWS V14.01,2013-05-18 12:51:00,
2013-05-18 07:56:00,76.0,73.2,29.98,SW,216,4.0,10.0,91,0.00,,---,0.00,VWS V14.01,2013-05-18 12:56:00,
2013-05-18 08:01:00,76.2,73.7,29.99,South,191,6.0,6.0,92,0.00,,---,0.00,VWS V14.01,2013-05-18 13:01:00,
2013-05-18 08:06:00,76.5,73.7,29.99,SSW,208,4.0,11.0,91,0.00,,---,0.00,VWS V14.01,2013-05-18 13:06:00,
2013-05-18 08:11:00,76.7,73.6,29.99,West,265,3.0,11.0,90,0.00,,---,0.00,VWS V14.01,2013-05-18 13:11:00,
2013-05-18 08:16:00,77.0,73.8,30.00,SSW,202,6.0,11.0,90,0.00,,---,0.00,VWS V14.01,2013-05-18 13:16:00,
2013-05-18 08:21:00,77.1,73.6,30.00,SSW,195,0.0,11.0,89,0.00,,---,0.00,VWS V14.01,2013-05-18 13:21:00,
2013-05-18 08:26:00,77.4,73.9,30.00,South,189,1.0,11.0,89,0.00,,---,0.00,VWS V14.01,2013-05-18 13:26:00,
2013-05-18 08:31:00,77.6,73.8,30.00,SW,226,4.0,6.0,88,0.00,,---,0.00,VWS V14.01,2013-05-18 13:31:00,
2013-05-18 08:36:00,77.8,74.0,30.00,SSW,200,5.0,11.0,88,0.00,,---,0.00,VWS V14.01,2013-05-18 13:36:00,
2013-05-18 08:41:00,78.1,73.9,30.00,SW,223,5.0,11.0,87,0.00,,---,0.00,VWS V14.01,2013-05-18 13:41:00,
2013-05-18 08:46:00,78.2,73.7,30.00,SSW,205,4.0,12.0,86,0.00,,---,0.00,VWS V14.01,2013-05-18 13:46:00,
2013-05-18 08:51:00,78.0,73.5,30.00,SW,216,1.0,12.0,86,0.00,,---,0.00,VWS V14.01,2013-05-18 13:51:00,
2013-05-18 08:55:00,78.0,73.5,30.00,South,177,5.0,14.0,86,0.00,,---,0.00,VWS V14.01,2013-05-18 13:55:00,
2013-05-18 09:00:00,78.0,73.1,30.00,SSW,198,0.0,10.0,85,0.00,,---,0.00,VWS V14.01,2013-05-18 14:00:00,
2013-05-18 09:06:00,78.0,73.1,30.00,SSW,196,3.0,11.0,85,0.00,,---,0.00,VWS V14.01,2013-05-18 14:06:00,
2013-05-18 09:11:00,78.1,73.2,30.01,South,186,6.0,11.0,85,0.00,,---,0.00,VWS V14.01,2013-05-18 14:11:00,
2013-05-18 09:16:00,78.3,73.4,30.01,SW,216,0.0,11.0,85,0.00,,---,0.00,VWS V14.01,2013-05-18 14:16:00,
2013-05-18 09:21:00,78.2,73.3,30.01,SSW,209,5.0,11.0,85,0.00,,---,0.00,VWS V14.01,2013-05-18 14:21:00,
2013-05-18 09:26:00,78.2,73.0,30.01,SSW,213,4.0,11.0,84,0.00,,---,0.00,VWS V14.01,2013-05-18 14:26:00,
2013-05-18 09:31:00,78.5,74.0,30.01,SSW,207,0.0,5.0,86,0.00,,---,0.00,VWS V14.01,2013-05-18 14:31:00,
2013-05-18 09:36:00,79.0,74.5,30.01,SW,236,2.0,6.0,86,0.00,,---,0.00,VWS V14.01,2013-05-18 14:36:00,
2013-05-18 09:41:00,79.3,74.1,30.01,WSW,243,1.0,7.0,84,0.00,,---,0.00,VWS V14.01,2013-05-18 14:41:00,
2013-05-18 09:46:00,79.6,74.0,30.01,South,190,2.0,10.0,83,0.00,,---,0.00,VWS V14.01,2013-05-18 14:46:00,
2013-05-18 09:51:00,79.7,74.1,30.01,SSW,203,5.0,10.0,83,0.00,,---,0.00,VWS V14.01,2013-05-18 14:51:00,
2013-05-18 09:56:00,79.6,73.6,30.01,West,275,5.0,10.0,82,0.00,,---,0.00,VWS V14.01,2013-05-18 14:56:00,
2013-05-18 10:01:00,79.4,73.8,30.01,SW,214,5.0,10.0,83,0.00,,---,0.00,VWS V14.01,2013-05-18 15:01:00,
2013-05-18 10:06:00,78.9,72.9,30.01,SSW,200,10.0,11.0,82,0.00,,---,0.00,VWS V14.01,2013-05-18 15:06:00,
2013-05-18 10:11:00,78.5,73.3,30.01,WSW,246,0.0,11.0,84,0.00,,---,0.00,VWS V14.01,2013-05-18 15:11:00,
2013-05-18 10:16:00,78.8,73.9,30.01,WSW,246,4.0,11.0,85,0.00,,---,0.00,VWS V14.01,2013-05-18 15:16:00,
2013-05-18 10:20:00,79.1,73.1,30.02,WSW,241,3.0,11.0,82,0.00,,---,0.00,VWS V14.01,2013-05-18 15:20:00,
2013-05-18 10:25:00,79.1,73.8,30.01,South,191,1.0,11.0,84,0.00,,---,0.00,VWS V14.01,2013-05-18 15:25:00,
2013-05-18 10:30:00,79.5,73.5,30.01,SW,223,8.0,11.0,82,0.00,,---,0.00,VWS V14.01,2013-05-18 15:30:00,
2013-05-18 10:35:00,79.6,73.6,30.01,South,178,3.0,11.0,82,0.00,,---,0.00,VWS V14.01,2013-05-18 15:35:00,
2013-05-18 10:40:00,79.5,73.2,30.02,SW,219,6.0,11.0,81,0.00,,---,0.00,VWS V14.01,2013-05-18 15:40:00,
2013-05-18 10:45:00,79.3,73.3,30.02,South,182,3.0,11.0,82,0.00,,---,0.00,VWS V14.01,2013-05-18 15:45:00,
2013-05-18 10:50:00,79.7,73.7,30.02,SSW,194,6.0,11.0,82,0.00,,---,0.00,VWS V14.01,2013-05-18 15:50:00,
2013-05-18 10:55:00,79.8,73.4,30.02,SSW,192,3.0,11.0,81,0.00,,---,0.00,VWS V14.01,2013-05-18 15:55:00,
2013-05-18 11:00:00,79.9,73.9,30.01,West,279,5.0,10.0,82,0.00,,---,0.00,VWS V14.01,2013-05-18 16:00:00,
2013-05-18 11:05:00,79.9,73.6,30.01,SW,219,3.0,16.0,81,0.00,,---,0.00,VWS V14.01,2013-05-18 16:05:00,
2013-05-18 11:10:00,80.2,73.1,30.01,SSW,192,7.0,16.0,79,0.00,,---,0.00,VWS V14.01,2013-05-18 16:10:00,
2013-05-18 11:15:00,80.3,73.9,30.02,South,183,2.0,16.0,81,0.00,,---,0.00,VWS V14.01,2013-05-18 16:15:00,
2013-05-18 11:20:00,80.4,74.0,30.01,South,187,6.0,16.0,81,0.00,,---,0.00,VWS V14.01,2013-05-18 16:20:00,
2013-05-18 11:25:00,80.4,74.0,30.01,WSW,242,11.0,16.0,81,0.00,,---,0.00,VWS V14.01,2013-05-18 16:25:00,
2013-05-18 11:30:00,80.7,74.0,30.01,South,182,1.0,5.0,80,0.00,,---,0.00,VWS V14.01,2013-05-18 16:30:00,
2013-05-18 11:35:00,81.1,74.7,30.01,South,188,4.0,10.0,81,0.00,,---,0.00,VWS V14.01,2013-05-18 16:35:00,
2013-05-18 11:40:00,81.0,73.9,30.01,SSW,192,7.0,13.0,79,0.00,,---,0.00,VWS V14.01,2013-05-18 16:40:00,
2013-05-18 11:45:00,80.8,73.7,30.01,WSW,239,3.0,13.0,79,0.00,,---,0.00,VWS V14.01,2013-05-18 16:45:00,
2013-05-18 11:50:00,80.7,73.6,30.01,NNW,331,0.0,13.0,79,0.00,,---,0.00,VWS V14.01,2013-05-18 16:50:00,
2013-05-18 11:55:00,80.8,74.1,30.00,SW,225,10.0,13.0,80,0.00,,---,0.00,VWS V14.01,2013-05-18 16:55:00,
2013-05-18 12:00:00,80.9,73.4,30.01,SW,226,11.0,11.0,78,0.00,,---,0.00,VWS V14.01,2013-05-18 17:00:00,
2013-05-18 12:05:00,81.0,74.6,30.01,SSW,203,2.0,11.0,81,0.00,,---,0.00,VWS V14.01,2013-05-18 17:05:00,
2013-05-18 12:10:00,81.1,73.6,30.00,South,180,3.0,13.0,78,0.00,,---,0.00,VWS V14.01,2013-05-18 17:10:00,
2013-05-18 12:15:00,81.0,73.9,30.00,SSW,196,1.0,14.0,79,0.00,,---,0.00,VWS V14.01,2013-05-18 17:15:00,
2013-05-18 12:20:00,80.9,74.2,30.00,SSW,200,4.0,14.0,80,0.00,,---,0.00,VWS V14.01,2013-05-18 17:20:00,
2013-05-18 12:25:00,81.2,74.1,30.00,SSE,161,6.0,14.0,79,0.00,,---,0.00,VWS V14.01,2013-05-18 17:25:00,
2013-05-18 12:30:00,81.1,74.3,30.00,SSE,163,6.0,8.0,80,0.00,,---,0.00,VWS V14.01,2013-05-18 17:30:00,
2013-05-18 12:35:00,81.2,74.1,30.00,SSW,207,10.0,14.0,79,0.00,,---,0.00,VWS V14.01,2013-05-18 17:35:00,
2013-05-18 12:40:00,81.0,73.9,30.00,SSW,194,11.0,14.0,79,0.00,,---,0.00,VWS V14.01,2013-05-18 17:40:00,
2013-05-18 12:45:00,80.7,73.6,30.00,SW,235,9.0,14.0,79,0.00,,---,0.00,VWS V14.01,2013-05-18 17:45:00,
2013-05-18 12:50:00,80.6,73.9,30.00,West,260,2.0,14.0,80,0.00,,---,0.00,VWS V14.01,2013-05-18 17:50:00,
2013-05-18 12:55:00,80.7,73.2,30.00,SSW,208,5.0,14.0,78,0.00,,---,0.00,VWS V14.01,2013-05-18 17:55:00,
2013-05-18 13:00:00,80.5,73.4,30.00,WSW,240,10.0,12.0,79,0.00,,---,0.00,VWS V14.01,2013-05-18 18:00:00,
2013-05-18 13:05:00,80.6,73.9,30.00,SW,229,5.0,12.0,80,0.00,,---,0.00,VWS V14.01,2013-05-18 18:05:00,
2013-05-18 13:10:00,80.8,73.7,29.99,SSW,192,4.0,12.0,79,0.00,,---,0.00,VWS V14.01,2013-05-18 18:10:00,
2013-05-18 13:15:00,80.9,74.2,29.99,South,174,5.0,12.0,80,0.00,,---,0.00,VWS V14.01,2013-05-18 18:15:00,
2013-05-18 13:20:00,80.8,73.7,30.00,SW,225,6.0,12.0,79,0.00,,---,0.00,VWS V14.01,2013-05-18 18:20:00,
2013-05-18 13:25:00,80.7,73.6,29.99,SSW,192,4.0,13.0,79,0.00,,---,0.00,VWS V14.01,2013-05-18 18:25:00,
2013-05-18 13:30:00,80.8,74.1,29.99,WSW,250,2.0,12.0,80,0.00,,---,0.00,VWS V14.01,2013-05-18 18:30:00,
2013-05-18 13:35:00,80.9,73.8,29.99,WSW,238,3.0,12.0,79,0.00,,---,0.00,VWS V14.01,2013-05-18 18:35:00,
2013-05-18 13:40:00,81.0,73.9,29.99,SW,236,4.0,12.0,79,0.00,,---,0.00,VWS V14.01,2013-05-18 18:40:00,
2013-05-18 13:45:00,81.2,74.1,29.99,SSW,213,9.0,12.0,79,0.00,,---,0.00,VWS V14.01,2013-05-18 18:45:00,
2013-05-18 13:50:00,81.1,73.6,29.99,SE,144,2.0,12.0,78,0.00,,---,0.00,VWS V14.01,2013-05-18 18:50:00,
2013-05-18 13:55:00,81.2,74.1,29.99,SSW,209,6.0,12.0,79,0.00,,---,0.00,VWS V14.01,2013-05-18 18:55:00,
2013-05-18 14:00:00,80.8,73.3,29.98,SSW,205,8.0,10.0,78,0.00,,---,0.00,VWS V14.01,2013-05-18 19:00:00,
2013-05-18 14:05:00,80.8,74.1,29.98,South,190,3.0,11.0,80,0.00,,---,0.00,VWS V14.01,2013-05-18 19:05:00,
2013-05-18 14:10:00,81.0,74.2,29.98,WSW,238,3.0,11.0,80,0.00,,---,0.00,VWS V14.01,2013-05-18 19:10:00,
2013-05-18 14:15:00,81.1,74.3,29.98,South,190,0.0,12.0,80,0.00,,---,0.00,VWS V14.01,2013-05-18 19:15:00,
2013-05-18 14:20:00,81.7,74.6,29.98,South,186,7.0,12.0,79,0.00,,---,0.00,VWS V14.01,2013-05-18 19:20:00,
2013-05-18 14:25:00,81.5,74.0,29.98,South,188,13.0,13.0,78,0.00,,---,0.00,VWS V14.01,2013-05-18 19:25:00,
2013-05-18 14:30:00,81.5,74.7,29.98,South,183,5.0,10.0,80,0.00,,---,0.00,VWS V14.01,2013-05-18 19:30:00,
2013-05-18 14:35:00,81.5,74.4,29.98,South,188,6.0,12.0,79,0.00,,---,0.00,VWS V14.01,2013-05-18 19:35:00,
2013-05-18 14:40:00,81.4,73.9,29.98,SW,223,3.0,12.0,78,0.00,,---,0.00,VWS V14.01,2013-05-18 19:40:00,
2013-05-18 14:45:00,81.3,74.2,29.98,South,179,2.0,12.0,79,0.00,,---,0.00,VWS V14.01,2013-05-18 19:45:00,
2013-05-18 14:50:00,81.4,74.3,29.98,SW,230,4.0,12.0,79,0.00,,---,0.00,VWS V14.01,2013-05-18 19:50:00,
2013-05-18 14:55:00,81.4,74.3,29.97,SW,218,4.0,12.0,79,0.00,,---,0.00,VWS V14.01,2013-05-18 19:55:00,
2013-05-18 15:00:00,81.3,73.8,29.98,SE,134,3.0,8.0,78,0.00,,---,0.00,VWS V14.01,2013-05-18 20:00:00,
2013-05-18 15:05:00,81.2,74.1,29.97,SSE,165,4.0,10.0,79,0.00,,---,0.00,VWS V14.01,2013-05-18 20:05:00,
2013-05-18 15:10:00,81.4,74.3,29.97,SSW,213,3.0,10.0,79,0.00,,---,0.00,VWS V14.01,2013-05-18 20:10:00,
2013-05-18 15:15:00,81.3,73.8,29.97,SSW,213,4.0,11.0,78,0.00,,---,0.00,VWS V14.01,2013-05-18 20:15:00,
2013-05-18 15:20:00,81.1,73.6,29.97,South,189,5.0,11.0,78,0.00,,---,0.00,VWS V14.01,2013-05-18 20:20:00,
2013-05-18 15:25:00,81.1,74.0,29.97,WSW,249,0.0,11.0,79,0.00,,---,0.00,VWS V14.01,2013-05-18 20:25:00,
2013-05-18 15:30:00,81.1,73.6,29.97,SSW,202,5.0,7.0,78,0.00,,---,0.00,VWS V14.01,2013-05-18 20:30:00,
2013-05-18 15:35:00,80.8,73.7,29.97,SSW,199,3.0,11.0,79,0.00,,---,0.00,VWS V14.01,2013-05-18 20:35:00,
2013-05-18 15:40:00,80.8,73.7,29.96,WSW,238,7.0,11.0,79,0.00,,---,0.00,VWS V14.01,2013-05-18 20:40:00,
2013-05-18 15:45:00,80.8,73.7,29.97,SSW,205,5.0,11.0,79,0.00,,---,0.00,VWS V14.01,2013-05-18 20:45:00,
2013-05-18 15:50:00,80.7,73.6,29.96,South,178,2.0,11.0,79,0.00,,---,0.00,VWS V14.01,2013-05-18 20:50:00,
2013-05-18 15:55:00,80.5,73.4,29.96,South,173,3.0,11.0,79,0.00,,---,0.00,VWS V14.01,2013-05-18 20:55:00,
2013-05-18 16:00:00,80.8,73.7,29.96,WSW,238,4.0,9.0,79,0.00,,---,0.00,VWS V14.01,2013-05-18 21:00:00,
2013-05-18 16:05:00,81.1,74.3,29.96,SW,217,0.0,9.0,80,0.00,,---,0.00,VWS V14.01,2013-05-18 21:05:00,
2013-05-18 16:10:00,81.3,73.8,29.96,WSW,255,7.0,9.0,78,0.00,,---,0.00,VWS V14.01,2013-05-18 21:10:00,
2013-05-18 16:15:00,81.0,73.9,29.96,South,188,1.0,14.0,79,0.00,,---,0.00,VWS V14.01,2013-05-18 21:15:00,
2013-05-18 16:20:00,80.7,73.6,29.96,South,178,12.0,14.0,79,0.00,,---,0.00,VWS V14.01,2013-05-18 21:20:00,
2013-05-18 16:25:00,80.3,73.6,29.96,South,172,5.0,14.0,80,0.00,,---,0.00,VWS V14.01,2013-05-18 21:25:00,
2013-05-18 16:30:00,80.2,73.8,29.95,SSW,201,1.0,5.0,81,0.00,,---,0.00,VWS V14.01,2013-05-18 21:30:00,
2013-05-18 16:35:00,80.3,73.6,29.96,SSW,192,8.0,12.0,80,0.00,,---,0.00,VWS V14.01,2013-05-18 21:35:00,
2013-05-18 16:40:00,80.1,73.4,29.96,South,190,3.0,12.0,80,0.00,,---,0.00,VWS V14.01,2013-05-18 21:40:00,
2013-05-18 16:45:00,80.0,73.3,29.96,SW,236,1.0,12.0,80,0.00,,---,0.00,VWS V14.01,2013-05-18 21:45:00,
2013-05-18 16:50:00,79.8,73.1,29.95,SSW,210,2.0,12.0,80,0.00,,---,0.00,VWS V14.01,2013-05-18 21:50:00,
2013-05-18 16:55:00,79.8,73.1,29.95,South,171,5.0,12.0,80,0.00,,---,0.00,VWS V14.01,2013-05-18 21:55:00,
2013-05-18 17:00:00,79.8,73.1,29.96,SSW,194,1.0,12.0,80,0.00,,---,0.00,VWS V14.01,2013-05-18 22:00:00,
2013-05-18 17:05:00,79.7,73.4,29.96,SW,221,5.0,12.0,81,0.00,,---,0.00,VWS V14.01,2013-05-18 22:05:00,
2013-05-18 17:10:00,79.5,72.8,29.96,SSW,209,3.0,12.0,80,0.00,,---,0.00,VWS V14.01,2013-05-18 22:10:00,
2013-05-18 17:15:00,79.6,73.6,29.96,WNW,284,4.0,12.0,82,0.00,,---,0.00,VWS V14.01,2013-05-18 22:15:00,
2013-05-18 17:20:00,79.6,73.3,29.96,SW,217,3.0,12.0,81,0.00,,---,0.00,VWS V14.01,2013-05-18 22:20:00,
2013-05-18 17:25:00,79.5,72.8,29.95,South,186,6.0,12.0,80,0.00,,---,0.00,VWS V14.01,2013-05-18 22:25:00,
2013-05-18 17:30:00,79.4,73.1,29.96,SE,134,5.0,10.0,81,0.00,,---,0.00,VWS V14.01,2013-05-18 22:30:00,
2013-05-18 17:35:00,79.4,73.1,29.96,WSW,238,0.0,11.0,81,0.00,,---,0.00,VWS V14.01,2013-05-18 22:35:00,
2013-05-18 17:40:00,79.6,73.6,29.95,SSW,201,4.0,11.0,82,0.00,,---,0.00,VWS V14.01,2013-05-18 22:40:00,
2013-05-18 17:45:00,79.6,73.6,29.95,SSW,198,10.0,11.0,82,0.00,,---,0.00,VWS V14.01,2013-05-18 22:45:00,
2013-05-18 17:50:00,79.6,73.6,29.95,SSW,199,8.0,11.0,82,0.00,,---,0.00,VWS V14.01,2013-05-18 22:50:00,
2013-05-18 17:55:00,79.5,73.5,29.95,South,183,3.0,11.0,82,0.00,,---,0.00,VWS V14.01,2013-05-18 22:55:00,
2013-05-18 18:00:00,79.3,73.3,29.95,WSW,254,6.0,11.0,82,0.00,,---,0.00,VWS V14.01,2013-05-18 23:00:00,
2013-05-18 18:05:00,79.1,73.8,29.95,South,169,5.0,12.0,84,0.00,,---,0.00,VWS V14.01,2013-05-18 23:05:00,
2013-05-18 18:10:00,79.1,73.8,29.95,SW,233,3.0,12.0,84,0.00,,---,0.00,VWS V14.01,2013-05-18 23:10:00,
2013-05-18 18:15:00,79.0,73.4,29.95,SSE,163,7.0,13.0,83,0.00,,---,0.00,VWS V14.01,2013-05-18 23:15:00,
2013-05-18 18:20:00,78.8,73.2,29.95,SSE,167,5.0,13.0,83,0.00,,---,0.00,VWS V14.01,2013-05-18 23:20:00,
2013-05-18 18:25:00,78.5,73.3,29.95,SW,215,3.0,13.0,84,0.00,,---,0.00,VWS V14.01,2013-05-18 23:25:00,
2013-05-18 18:30:00,78.3,73.1,29.94,South,188,0.0,4.0,84,0.00,,---,0.00,VWS V14.01,2013-05-18 23:30:00,
2013-05-18 18:35:00,78.2,73.3,29.95,SSW,202,0.0,7.0,85,0.00,,---,0.00,VWS V14.01,2013-05-18 23:35:00,
2013-05-18 18:40:00,78.1,73.2,29.95,SSW,207,0.0,11.0,85,0.00,,---,0.00,VWS V14.01,2013-05-18 23:40:00,
2013-05-18 18:45:00,77.9,73.0,29.95,SW,221,4.0,11.0,85,0.00,,---,0.00,VWS V14.01,2013-05-18 23:45:00,
2013-05-18 18:50:00,77.7,72.8,29.95,West,264,4.0,11.0,85,0.00,,---,0.00,VWS V14.01,2013-05-18 23:50:00,
2013-05-18 18:55:00,77.5,73.0,29.95,SW,226,0.0,12.0,86,0.00,,---,0.00,VWS V14.01,2013-05-18 23:55:00,
2013-05-18 19:00:00,77.4,72.9,29.95,South,191,0.0,9.0,86,0.00,,---,0.00,VWS V14.01,2013-05-19 00:00:00,
2013-05-18 19:05:00,77.2,72.7,29.95,SSW,205,5.0,13.0,86,0.00,,---,0.00,VWS V14.01,2013-05-19 00:05:00,
2013-05-18 19:10:00,77.0,72.8,29.95,SW,216,0.0,13.0,87,0.00,,---,0.00,VWS V14.01,2013-05-19 00:10:00,
2013-05-18 19:15:00,76.8,72.6,29.95,SW,223,4.0,13.0,87,0.00,,---,0.00,VWS V14.01,2013-05-19 00:15:00,
2013-05-18 19:20:00,76.6,72.4,29.95,SW,221,0.0,13.0,87,0.00,,---,0.00,VWS V14.01,2013-05-19 00:20:00,
2013-05-18 19:25:00,76.5,72.7,29.95,SW,215,0.0,13.0,88,0.00,,---,0.00,VWS V14.01,2013-05-19 00:25:00,
2013-05-18 19:30:00,76.4,72.6,29.95,SSW,211,0.0,3.0,88,0.00,,---,0.00,VWS V14.01,2013-05-19 00:30:00,
2013-05-18 19:35:00,76.2,72.7,29.95,SSW,198,1.0,5.0,89,0.00,,---,0.00,VWS V14.01,2013-05-19 00:35:00,
2013-05-18 19:40:00,76.1,72.6,29.95,South,190,3.0,7.0,89,0.00,,---,0.00,VWS V14.01,2013-05-19 00:40:00,
2013-05-18 19:45:00,76.0,72.5,29.95,SSW,201,0.0,7.0,89,0.00,,---,0.00,VWS V14.01,2013-05-19 00:45:00,
2013-05-18 19:50:00,75.8,72.3,29.95,SSW,200,5.0,7.0,89,0.00,,---,0.00,VWS V14.01,2013-05-19 00:50:00,
2013-05-18 19:55:00,75.7,72.6,29.96,South,189,0.0,7.0,90,0.00,,---,0.00,VWS V14.01,2013-05-19 00:55:00,
2013-05-18 20:00:00,75.7,72.6,29.96,SSW,201,3.0,5.0,90,0.00,,---,0.00,VWS V14.01,2013-05-19 01:00:00,
2013-05-18 20:05:00,75.6,72.5,29.96,SSW,192,2.0,6.0,90,0.00,,---,0.00,VWS V14.01,2013-05-19 01:05:00,
2013-05-18 20:10:00,75.5,72.4,29.96,SSW,194,0.0,6.0,90,0.00,,---,0.00,VWS V14.01,2013-05-19 01:10:00,
2013-05-18 20:15:00,75.4,72.6,29.96,SSW,195,2.0,6.0,91,0.00,,---,0.00,VWS V14.01,2013-05-19 01:15:00,
2013-05-18 20:20:00,75.3,72.5,29.96,SSW,193,0.0,6.0,91,0.00,,---,0.00,VWS V14.01,2013-05-19 01:20:00,
2013-05-18 20:25:00,75.3,72.5,29.96,SSW,194,5.0,7.0,91,0.00,,---,0.00,VWS V14.01,2013-05-19 01:25:00,
2013-05-18 20:30:00,75.3,72.5,29.96,SSW,192,0.0,6.0,91,0.00,,---,0.00,VWS V14.01,2013-05-19 01:30:00,
2013-05-18 20:35:00,75.3,72.5,29.96,SSW,209,0.0,6.0,91,0.00,,---,0.00,VWS V14.01,2013-05-19 01:35:00,
2013-05-18 20:40:00,75.3,72.5,29.96,SSW,213,3.0,6.0,91,0.00,,---,0.00,VWS V14.01,2013-05-19 01:40:00,
2013-05-18 20:45:00,75.3,72.5,29.97,SSW,211,3.0,6.0,91,0.00,,---,0.00,VWS V14.01,2013-05-19 01:45:00,
2013-05-18 20:50:00,75.3,72.5,29.96,SSW,211,2.0,6.0,91,0.00,,---,0.00,VWS V14.01,2013-05-19 01:50:00,
2013-05-18 20:55:00,75.2,72.4,29.96,SW,218,0.0,9.0,91,0.00,,---,0.00,VWS V14.01,2013-05-19 01:55:00,
2013-05-18 21:00:00,75.2,72.4,29.96,SW,217,0.0,5.0,91,0.00,,---,0.00,VWS V14.01,2013-05-19 02:00:00,
2013-05-18 21:05:00,75.2,72.7,29.96,SW,217,0.0,6.0,92,0.00,,---,0.00,VWS V14.01,2013-05-19 02:05:00,
2013-05-18 21:10:00,75.1,72.6,29.97,SW,217,0.0,6.0,92,0.00,,---,0.00,VWS V14.01,2013-05-19 02:10:00,
2013-05-18 21:15:00,75.0,72.5,29.96,SW,216,3.0,6.0,92,0.00,,---,0.00,VWS V14.01,2013-05-19 02:15:00,
2013-05-18 21:20:00,74.9,72.4,29.97,SSW,198,6.0,6.0,92,0.00,,---,0.00,VWS V14.01,2013-05-19 02:20:00,
2013-05-18 21:25:00,74.8,72.3,29.96,SSW,208,0.0,6.0,92,0.00,,---,0.00,VWS V14.01,2013-05-19 02:25:00,
2013-05-18 21:30:00,74.9,72.4,29.96,SSW,208,0.0,2.0,92,0.00,,---,0.00,VWS V14.01,2013-05-19 02:30:00,
2013-05-18 21:35:00,74.8,72.3,29.96,SSW,194,0.0,5.0,92,0.00,,---,0.00,VWS V14.01,2013-05-19 02:35:00,
2013-05-18 21:40:00,74.8,72.3,29.96,SSW,201,0.0,6.0,92,0.00,,---,0.00,VWS V14.01,2013-05-19 02:40:00,
2013-05-18 21:45:00,74.8,72.3,29.96,SSW,204,0.0,6.0,92,0.00,,---,0.00,VWS V14.01,2013-05-19 02:45:00,
2013-05-18 21:50:00,74.7,72.2,29.96,SSW,199,0.0,6.0,92,0.00,,---,0.00,VWS V14.01,2013-05-19 02:50:00,
2013-05-18 21:55:00,74.7,72.2,29.96,SSW,194,2.0,6.0,92,0.00,,---,0.00,VWS V14.01,2013-05-19 02:55:00,
2013-05-18 22:00:00,74.7,72.2,29.96,SSW,194,1.0,1.0,92,0.00,,---,0.00,VWS V14.01,2013-05-19 03:00:00,
2013-05-18 22:05:00,74.7,72.2,29.96,SSW,192,0.0,2.0,92,0.00,,---,0.00,VWS V14.01,2013-05-19 03:05:00,
2013-05-18 22:10:00,74.6,72.1,29.96,SSW,192,0.0,2.0,92,0.00,,---,0.00,VWS V14.01,2013-05-19 03:10:00,
2013-05-18 22:15:00,74.6,72.4,29.96,SSW,192,1.0,4.0,93,0.00,,---,0.00,VWS V14.01,2013-05-19 03:15:00,
2013-05-18 22:20:00,74.7,72.6,29.96,SSW,192,3.0,5.0,93,0.00,,---,0.00,VWS V14.01,2013-05-19 03:20:00,
2013-05-18 22:25:00,74.8,72.6,29.96,South,176,2.0,6.0,93,0.00,,---,0.00,VWS V14.01,2013-05-19 03:25:00,
2013-05-18 22:30:00,74.8,72.6,29.96,South,178,0.0,5.0,93,0.00,,---,0.00,VWS V14.01,2013-05-19 03:30:00,
2013-05-18 22:35:00,74.8,72.3,29.96,SSW,197,4.0,7.0,92,0.00,,---,0.00,VWS V14.01,2013-05-19 03:35:00,
2013-05-18 22:40:00,74.8,72.3,29.96,South,183,0.0,7.0,92,0.00,,---,0.00,VWS V14.01,2013-05-19 03:40:00,
2013-05-18 22:45:00,74.8,72.3,29.95,SSW,205,4.0,7.0,92,0.00,,---,0.00,VWS V14.01,2013-05-19 03:45:00,
2013-05-18 22:50:00,74.8,72.3,29.95,South,188,2.0,7.0,92,0.00,,---,0.00,VWS V14.01,2013-05-19 03:50:00,
2013-05-18 22:55:00,74.8,72.6,29.95,SSW,194,0.0,7.0,93,0.00,,---,0.00,VWS V14.01,2013-05-19 03:55:00,
2013-05-18 23:00:00,74.8,72.6,29.95,South,184,0.0,5.0,93,0.00,,---,0.00,VWS V14.01,2013-05-19 04:00:00,
2013-05-18 23:01:00,74.8,72.6,29.95,South,184,0.0,5.0,93,0.00,,---,0.00,VWS V14.01,2013-05-19 04:01:00,
2013-05-18 23:06:00,74.8,72.6,29.95,SSW,202,5.0,6.0,93,0.00,,---,0.00,VWS V14.01,2013-05-19 04:06:00,
2013-05-18 23:11:00,74.8,72.6,29.94,SSW,200,0.0,9.0,93,0.00,,---,0.00,VWS V14.01,2013-05-19 04:11:00,
2013-05-18 23:16:00,74.7,72.6,29.95,SW,219,0.0,9.0,93,0.00,,---,0.00,VWS V14.01,2013-05-19 04:16:00,
2013-05-18 23:21:00,74.7,72.6,29.94,SSW,213,0.0,9.0,93,0.00,,---,0.00,VWS V14.01,2013-05-19 04:21:00,
2013-05-18 23:26:00,74.6,72.4,29.95,South,188,3.0,9.0,93,0.00,,---,0.00,VWS V14.01,2013-05-19 04:26:00,
2013-05-18 23:31:00,74.7,72.6,29.95,South,191,0.0,5.0,93,0.00,,---,0.00,VWS V14.01,2013-05-19 04:31:00,
2013-05-18 23:36:00,74.7,72.6,29.95,SW,227,0.0,5.0,93,0.00,,---,0.00,VWS V14.01,2013-05-19 04:36:00,
2013-05-18 23:41:00,74.7,72.6,29.95,SW,221,0.0,6.0,93,0.00,,---,0.00,VWS V14.01,2013-05-19 04:41:00,
2013-05-18 23:46:00,74.7,72.6,29.95,SSW,192,9.0,9.0,93,0.00,,---,0.00,VWS V14.01,2013-05-19 04:46:00,
2013-05-18 23:51:00,74.7,72.6,29.95,SSW,196,0.0,9.0,93,0.00,,---,0.00,VWS V14.01,2013-05-19 04:51:00,
2013-05-18 23:56:00,74.7,72.6,29.95,SSW,193,2.0,9.0,93,0.00,,---,0.00,VWS V14.01,2013-05-19 04:56:00,